DW9289 Weather Reports


Display with metric or nautical units.
time (UTC)temp
F
wind
direction
speed
MPH
gust
MPH
rain 1hr
in
rain 24hr
in
rain mn
in
humidity
%
barometer
mb
20260510214219 79 21 0.0 0.0 0.00 0.00 0.00 47 1015.3
20260510213715 79 14 0.0 0.0 0.00 0.00 0.00 50 1015.8
20260510213211 80 331 0.0 0.0 0.00 0.00 0.00 49 1015.6
20260510212707 79 66 0.0 0.0 0.00 0.00 0.00 44 1015.6
20260510212205 80 41 1.0 1.0 0.00 0.00 0.00 44 1015.6
20260510211702 80 66 0.0 1.0 0.00 0.00 0.00 46 1015.7
20260510211156 80 40 1.0 1.0 0.00 0.00 0.00 48 1015.6
20260510210654 80 202 0.0 0.0 0.00 0.00 0.00 46 1015.9
20260510210149 80 174 0.0 1.0 0.00 0.00 0.00 48 1015.9
20260510205648 80 256 4.0 6.0 0.00 0.00 0.00 45 1015.8
20260510205144 80 65 0.0 1.0 0.00 0.00 0.00 46 1015.7
20260510204640 81 310 0.0 1.0 0.00 0.00 0.00 50 1015.9
20260510204137 82 38 0.0 1.0 0.00 0.00 0.00 43 1015.9
20260510203634 82 18 0.0 1.0 0.00 0.00 0.00 48 1015.8
20260510203131 82 34 0.0 1.0 0.00 0.00 0.00 45 1015.7
20260510202630 82 269 0.0 1.0 0.00 0.00 0.00 44 1015.9
20260510202125 83 102 0.0 0.0 0.00 0.00 0.00 41 1015.8
20260510201618 84 290 0.0 0.0 0.00 0.00 0.00 40 1016.0
20260510201115 84 229 1.0 1.0 0.00 0.00 0.00 44 1016.2
20260510200611 85 299 1.0 1.0 0.00 0.00 0.00 42 1016.1
20260510200109 84 251 1.0 1.0 0.00 0.00 0.00 41 1016.2
20260510195606 84 331 0.0 1.0 0.00 0.00 0.00 43 1016.2
20260510195102 84 35 1.0 1.0 0.00 0.00 0.00 42 1016.1
20260510194556 83 111 0.0 0.0 0.00 0.00 0.00 42 1016.3
20260510194053 84 318 0.0 0.0 0.00 0.00 0.00 43 1016.1
20260510193548 84 322 1.0 1.0 0.00 0.00 0.00 40 1016.1
20260510193044 85 257 1.0 1.0 0.00 0.00 0.00 37 1016.4
20260510192544 84 239 0.0 1.0 0.00 0.00 0.00 37 1016.0
20260510192040 84 288 0.0 0.0 0.00 0.00 0.00 37 1016.1
20260510191536 85 292 0.0 0.0 0.00 0.00 0.00 39 1016.1
20260510191033 85 319 0.0 1.0 0.00 0.00 0.00 40 1016.0
20260510190530 85 235 1.0 1.0 0.00 0.00 0.00 38 1015.9
20260510190028 84 91 1.0 1.0 0.00 0.00 0.00 41 1016.3
20260510185524 83 268 2.0 2.0 0.00 0.00 0.00 40 1015.9
20260510185022 84 191 0.0 1.0 0.00 0.00 0.00 41 1016.0
20260510184519 86 305 0.0 0.0 0.00 0.00 0.00 40 1016.3
20260510184014 85 16 1.0 1.0 0.00 0.00 0.00 38 1016.3
20260510183510 85 243 1.0 1.0 0.00 0.00 0.00 40 1016.3
20260510183006 84 13 1.0 1.0 0.00 0.00 0.00 43 1016.4
20260510182502 85 50 1.0 1.0 0.00 0.00 0.00 42 1016.4
20260510181957 85 332 1.0 2.0 0.00 0.00 0.00 41 1016.3
20260510181456 83 319 1.0 1.0 0.00 0.00 0.00 45 1016.2
20260510180951 84 264 4.0 4.0 0.00 0.00 0.00 40 1016.4
20260510180449 84 255 1.0 2.0 0.00 0.00 0.00 44 1016.3
20260510175946 83 211 0.0 0.0 0.00 0.00 0.00 49 1016.3
20260510175441 84 267 2.0 2.0 0.00 0.00 0.00 44 1016.4
20260510174937 84 262 2.0 2.0 0.00 0.00 0.00 41 1016.5
20260510174436 84 259 1.0 1.0 0.00 0.00 0.00 40 1016.6
20260510173932 84 165 1.0 2.0 0.00 0.00 0.00 41 1016.7
20260510173427 84 80 0.0 1.0 0.00 0.00 0.00 41 1016.6
20260510172924 85 259 2.0 2.0 0.00 0.00 0.00 41 1016.6
20260510172420 84 340 0.0 0.0 0.00 0.00 0.00 48 1016.9
20260510171916 82 201 0.0 0.0 0.00 0.00 0.00 46 1016.8
20260510171414 83 227 1.0 2.0 0.00 0.00 0.00 45 1016.9
20260510170910 83 252 1.0 1.0 0.00 0.00 0.00 44 1016.8
20260510170407 82 233 1.0 1.0 0.00 0.00 0.00 47 1016.8
20260510165902 82 224 0.0 0.0 0.00 0.00 0.00 48 1016.9
20260510165359 82 267 0.0 1.0 0.00 0.00 0.00 47 1016.8
20260510164856 82 208 2.0 2.0 0.00 0.00 0.00 48 1016.9
20260510164353 81 326 0.0 0.0 0.00 0.00 0.00 51 1016.7
20260510163852 81 71 0.0 1.0 0.00 0.00 0.00 48 1016.7
20260510163349 80 230 0.0 0.0 0.00 0.00 0.00 55 1016.9
20260510162843 80 275 0.0 1.0 0.00 0.00 0.00 51 1016.9
20260510162341 80 334 0.0 0.0 0.00 0.00 0.00 50 1016.8
20260510161836 80 74 0.0 0.0 0.00 0.00 0.00 54 1016.9
20260510161333 79 346 0.0 0.0 0.00 0.00 0.00 54 1016.8
20260510160830 78 311 0.0 1.0 0.00 0.00 0.00 54 1016.8
20260510160327 78 269 1.0 2.0 0.00 0.00 0.00 54 1016.8
20260510155820 77 234 0.0 1.0 0.00 0.00 0.00 57 1016.8
20260510155318 77 221 1.0 2.0 0.00 0.00 0.00 59 1016.6
20260510154814 77 211 1.0 1.0 0.00 0.00 0.00 57 1016.6
20260510154310 77 213 2.0 2.0 0.00 0.00 0.00 59 1016.7
20260510153804 76 273 1.0 2.0 0.00 0.00 0.00 58 1016.8
20260510153300 76 198 0.0 1.0 0.00 0.00 0.00 63 1016.6
20260510152757 76 244 2.0 3.0 0.00 0.00 0.00 63 1016.4
20260510152254 75 196 0.0 1.0 0.00 0.00 0.00 66 1016.6
20260510151750 75 205 2.0 2.0 0.00 0.00 0.00 67 1016.4
20260510151249 75 182 0.0 1.0 0.00 0.00 0.00 66 1016.5
20260510150744 74 220 1.0 2.0 0.00 0.00 0.00 67 1016.6
20260510150240 74 161 1.0 1.0 0.00 0.00 0.00 66 1016.5
20260510145736 73 153 0.0 0.0 0.00 0.00 0.00 69 1016.6
20260510145233 73 314 0.0 1.0 0.00 0.00 0.00 72 1016.5
20260510144728 73 313 0.0 0.0 0.00 0.00 0.00 73 1016.3
20260510144227 72 285 0.0 1.0 0.00 0.00 0.00 78 1016.5
20260510143720 72 188 0.0 1.0 0.00 0.00 0.00 79 1016.4
20260510143217 72 214 0.0 1.0 0.00 0.00 0.00 80 1016.4
20260510142713 71 260 1.0 2.0 0.00 0.00 0.00 81 1016.6
20260510142210 71 213 0.0 0.0 0.00 0.00 0.00 82 1016.4
20260510141707 71 160 0.0 1.0 0.00 0.00 0.00 82 1016.7
20260510141206 70 197 1.0 1.0 0.00 0.00 0.00 83 1016.6
20260510140702 70 273 0.0 1.0 0.00 0.00 0.00 82 1016.6
20260510140201 69 218 0.0 1.0 0.00 0.00 0.00 84 1016.5
20260510135656 69 197 0.0 1.0 0.00 0.00 0.00 85 1016.5
20260510135152 69 206 1.0 1.0 0.00 0.00 0.00 86 1016.4
20260510134650 68 228 1.0 1.0 0.00 0.00 0.00 87 1016.5
20260510134147 68 212 0.0 1.0 0.00 0.00 0.00 88 1016.5
20260510133643 67 192 1.0 1.0 0.00 0.00 0.00 89 1016.5
20260510133138 67 208 1.0 2.0 0.00 0.00 0.00 90 1016.3
20260510132635 66 154 0.0 0.0 0.00 0.00 0.00 91 1016.6
20260510132132 66 189 1.0 1.0 0.00 0.00 0.00 92 1016.4
20260510131630 65 202 1.0 1.0 0.00 0.00 0.00 92 1016.7
20260510131122 65 233 1.0 1.0 0.00 0.00 0.00 93 1016.5
20260510130618 64 260 1.0 1.0 0.00 0.00 0.00 93 1016.5
20260510130116 64 200 1.0 1.0 0.00 0.00 0.00 93 1016.4
20260510125612 64 226 1.0 1.0 0.00 0.00 0.00 93 1016.3
20260510125108 63 238 1.0 2.0 0.00 0.00 0.00 94 1016.2
20260510124605 63 209 1.0 1.0 0.00 0.00 0.00 95 1016.3
20260510124102 62 201 1.0 1.0 0.00 0.00 0.00 95 1016.2
20260510123556 62 219 1.0 1.0 0.00 0.00 0.00 96 1016.2
20260510123053 61 212 1.0 1.0 0.00 0.00 0.00 96 1016.1
20260510122549 61 218 1.0 1.0 0.00 0.00 0.00 97 1016.0
20260510122046 61 209 1.0 1.0 0.00 0.00 0.00 98 1016.0
20260510121543 61 220 1.0 1.0 0.00 0.00 0.00 98 1016.1
20260510121040 60 228 1.0 1.0 0.00 0.00 0.00 99 1016.0
20260510120538 60 223 1.0 1.0 0.00 0.00 0.00 98 1015.8
20260510120033 60 215 0.0 1.0 0.00 0.00 0.00 99 1015.7
20260510115530 60 211 1.0 1.0 0.00 0.00 0.00 99 1015.8
20260510115027 59 219 1.0 2.0 0.00 0.00 0.00 99 1015.4
20260510114522 59 240 1.0 2.0 0.00 0.00 0.00 99 1015.3
20260510114019 59 225 1.0 1.0 0.00 0.00 0.00 99 1015.4
20260510113514 59 229 1.0 1.0 0.00 0.00 0.00 99 1015.3
20260510113012 59 218 1.0 1.0 0.00 0.00 0.00 99 1015.2
20260510112509 59 219 1.0 1.0 0.00 0.00 0.00 99 1015.1
20260510112005 59 229 1.0 1.0 0.00 0.00 0.00 99 1015.1
20260510111502 58 234 1.0 1.0 0.00 0.00 0.00 99 1015.0
20260510110957 58 222 1.0 1.0 0.00 0.00 0.00 99 1014.7
20260510110454 58 209 2.0 3.0 0.00 0.00 0.00 99 1014.7
20260510105950 58 221 1.0 1.0 0.00 0.00 0.00 98 1014.8
20260510105445 58 224 1.0 1.0 0.00 0.00 0.00 98 1014.7
20260510104940 58 199 1.0 1.0 0.00 0.00 0.00 98 1014.7
20260510104437 57 223 1.0 1.0 0.00 0.00 0.00 98 1014.3
20260510103934 57 199 1.0 1.0 0.00 0.00 0.00 98 1014.6
20260510103432 57 204 1.0 1.0 0.00 0.00 0.00 98 1014.3
20260510102926 57 201 1.0 2.0 0.00 0.00 0.00 98 1014.3
20260510102422 57 222 1.0 1.0 0.00 0.00 0.00 98 1014.2
20260510101920 57 205 1.0 1.0 0.00 0.00 0.00 97 1014.3
20260510101418 57 222 1.0 1.0 0.00 0.00 0.00 97 1014.2
20260510100915 56 213 1.0 1.0 0.00 0.00 0.00 97 1014.1
20260510100412 56 199 1.0 1.0 0.00 0.00 0.00 96 1014.2
20260510095908 56 197 0.0 0.0 0.00 0.00 0.00 96 1014.3
20260510095403 56 195 1.0 1.0 0.00 0.00 0.00 96 1014.2
20260510094902 56 199 0.0 1.0 0.00 0.00 0.00 96 1014.0
20260510094358 56 200 1.0 1.0 0.00 0.00 0.00 96 1014.1
20260510093854 57 212 1.0 1.0 0.00 0.00 0.00 96 1013.9
20260510093350 57 204 1.0 1.0 0.00 0.00 0.00 95 1013.9
20260510092846 57 207 0.0 1.0 0.00 0.00 0.00 95 1014.0
20260510092343 57 217 1.0 1.0 0.00 0.00 0.00 94 1014.1
20260510091838 57 234 2.0 2.0 0.00 0.00 0.00 95 1014.0
20260510091336 57 212 1.0 1.0 0.00 0.00 0.00 94 1013.9
20260510090832 57 210 1.0 2.0 0.00 0.00 0.00 93 1013.9
20260510090329 57 219 1.0 1.0 0.00 0.00 0.00 93 1013.9
20260510085824 57 240 1.0 2.0 0.00 0.00 0.00 93 1014.0
20260510085319 57 223 1.0 1.0 0.00 0.00 0.00 93 1013.9
20260510084815 57 211 1.0 1.0 0.00 0.00 0.00 92 1013.9
20260510084312 57 219 1.0 1.0 0.00 0.00 0.00 91 1013.9
20260510083809 57 232 1.0 1.0 0.00 0.00 0.00 91 1013.9
20260510083306 57 209 1.0 1.0 0.00 0.00 0.00 90 1013.9
20260510082801 57 210 1.0 1.0 0.00 0.00 0.00 90 1013.9
20260510082258 57 232 1.0 2.0 0.00 0.00 0.00 90 1013.9
20260510081756 57 222 1.0 1.0 0.00 0.00 0.00 89 1013.9
20260510081253 57 245 1.0 2.0 0.00 0.00 0.00 89 1014.0
20260510080748 56 205 1.0 2.0 0.00 0.00 0.00 89 1013.7
20260510080244 56 211 1.0 2.0 0.00 0.00 0.00 89 1013.8
20260510075741 56 190 1.0 2.0 0.00 0.00 0.00 88 1013.8
20260510075239 57 208 1.0 1.0 0.00 0.00 0.00 87 1013.8
20260510074736 57 205 1.0 1.0 0.00 0.00 0.00 86 1013.6
20260510074232 57 202 1.0 1.0 0.00 0.00 0.00 85 1013.5
20260510073728 57 223 0.0 1.0 0.00 0.00 0.00 85 1013.5
20260510073224 58 216 1.0 1.0 0.00 0.00 0.00 84 1013.3
20260510072720 58 212 1.0 2.0 0.00 0.00 0.00 84 1013.3
20260510072217 58 211 1.0 2.0 0.00 0.00 0.00 83 1013.4
20260510071714 58 196 1.0 1.0 0.00 0.00 0.00 82 1013.1
20260510071210 57 226 2.0 2.0 0.00 0.00 0.00 85 1013.2
20260510070708 56 213 1.0 1.0 0.00 0.00 0.00 88 1013.0
20260510070205 56 161 0.0 1.0 0.00 0.00 0.00 89 1013.1
20260510065700 56 161 0.0 0.0 0.00 0.00 0.00 88 1013.2
20260510065157 56 162 0.0 0.0 0.00 0.00 0.00 88 1013.0
20260510064653 56 162 0.0 0.0 0.00 0.00 0.00 87 1013.2
20260510064151 56 147 0.0 0.0 0.00 0.00 0.00 88 1013.0
20260510063648 56 204 1.0 1.0 0.00 0.00 0.00 88 1013.2
20260510063144 56 159 1.0 1.0 0.00 0.00 0.00 87 1013.0
20260510062640 56 156 0.0 0.0 0.00 0.00 0.00 88 1013.1
20260510062136 56 158 0.0 1.0 0.00 0.00 0.00 88 1012.8
20260510061632 56 160 0.0 0.0 0.00 0.00 0.00 88 1013.1
20260510061130 56 160 0.0 0.0 0.00 0.00 0.00 88 1013.2
20260510060625 56 160 0.0 0.0 0.00 0.00 0.00 88 1012.9
20260510060122 56 160 0.0 0.0 0.00 0.00 0.00 89 1013.0
20260510055618 56 160 0.0 0.0 0.00 0.00 0.00 89 1013.3
20260510055116 56 155 0.0 0.0 0.00 0.00 0.00 89 1013.2
20260510054611 57 152 0.0 0.0 0.00 0.00 0.00 90 1013.1
20260510054106 57 152 0.0 0.0 0.00 0.00 0.00 89 1013.1
20260510053601 57 152 0.0 0.0 0.00 0.00 0.00 88 1013.0
20260510053058 57 152 0.0 0.0 0.00 0.00 0.00 88 1013.1
20260510052554 57 152 0.0 0.0 0.00 0.00 0.00 88 1013.0
20260510052050 57 153 0.0 0.0 0.00 0.00 0.00 88 1013.2
20260510051546 57 174 0.0 0.0 0.00 0.00 0.00 88 1013.2
20260510051043 57 167 0.0 1.0 0.00 0.00 0.00 88 1013.1
20260510050540 57 211 0.0 0.0 0.00 0.00 0.00 88 1013.3
20260510050037 57 283 0.0 0.0 0.00 0.00 0.00 88 1013.2
20260510045534 57 283 0.0 0.0 0.00 0.00 0.00 88 1013.2
20260510045030 57 284 0.0 0.0 0.00 0.00 0.00 87 1013.2
20260510044527 57 286 0.0 0.0 0.00 0.00 0.00 86 1013.2
20260510044025 57 286 0.0 0.0 0.00 0.00 0.00 86 1013.4
20260510043520 58 332 0.0 0.0 0.00 0.00 0.00 86 1013.1
20260510043015 58 331 0.0 0.0 0.00 0.00 0.00 85 1013.3
20260510042510 58 331 0.0 0.0 0.00 0.00 0.00 85 1013.2
20260510042005 58 331 0.0 0.0 0.00 0.00 0.00 85 1013.1
20260510041502 58 331 0.0 0.0 0.00 0.00 0.00 84 1013.0
20260510041000 58 331 0.0 0.0 0.00 0.00 0.00 84 1012.9
20260510040456 58 331 0.0 0.0 0.00 0.00 0.00 85 1013.1
20260510035952 58 331 0.0 0.0 0.00 0.00 0.00 84 1013.2
20260510035449 58 332 0.0 0.0 0.00 0.00 0.00 84 1013.2
20260510034948 58 331 0.0 0.0 0.00 0.00 0.00 84 1013.1
20260510034447 58 332 0.0 0.0 0.00 0.00 0.00 84 1013.0
20260510033943 59 331 0.0 0.0 0.00 0.00 0.00 83 1013.3
20260510033439 59 332 0.0 0.0 0.00 0.00 0.00 84 1013.1
20260510032937 59 332 0.0 0.0 0.00 0.00 0.00 83 1013.3
20260510032433 59 332 0.0 0.0 0.00 0.00 0.00 83 1013.2
20260510031928 59 332 0.0 0.0 0.00 0.00 0.00 82 1013.2
20260510031424 59 332 0.0 0.0 0.00 0.00 0.00 83 1013.2
20260510030919 59 332 0.0 0.0 0.00 0.00 0.00 83 1013.1
20260510030415 59 332 0.0 0.0 0.00 0.00 0.00 83 1013.0
20260510025913 59 332 0.0 0.0 0.00 0.00 0.00 83 1013.1
20260510025411 60 332 0.0 0.0 0.00 0.00 0.00 82 1012.9
20260510024908 60 332 0.0 0.0 0.00 0.00 0.00 82 1012.8
20260510024404 60 332 0.0 0.0 0.00 0.00 0.00 82 1012.8
20260510023900 60 332 0.0 0.0 0.00 0.00 0.00 82 1012.9
20260510023356 60 332 0.0 0.0 0.00 0.00 0.00 82 1012.8
20260510022854 60 332 0.0 0.0 0.00 0.00 0.00 81 1012.4
20260510022353 61 332 0.0 0.0 0.00 0.00 0.00 81 1012.5
20260510021852 61 332 0.0 0.0 0.00 0.00 0.00 80 1012.4
20260510021350 61 332 0.0 0.0 0.00 0.00 0.00 79 1012.3
20260510020846 61 332 0.0 0.0 0.00 0.00 0.00 80 1012.5
20260510020346 61 332 0.0 0.0 0.00 0.00 0.00 79 1012.6
20260510015842 62 332 0.0 0.0 0.00 0.00 0.00 78 1012.2
20260510015338 62 332 0.0 0.0 0.00 0.00 0.00 77 1012.3
20260510014833 62 332 0.0 0.0 0.00 0.00 0.00 76 1012.2
20260510014331 62 332 0.0 0.0 0.00 0.00 0.00 76 1012.2
20260510013827 63 332 0.0 0.0 0.00 0.00 0.00 75 1012.1
20260510013323 63 332 0.0 0.0 0.00 0.00 0.00 75 1012.0
20260510012818 63 332 0.0 0.0 0.00 0.00 0.00 75 1011.8
20260510012317 64 332 0.0 0.0 0.00 0.00 0.00 74 1011.9
20260510011813 64 332 0.0 0.0 0.00 0.00 0.00 73 1011.8
20260510011308 64 332 0.0 0.0 0.00 0.00 0.00 74 1011.6
20260510010805 64 332 0.0 0.0 0.00 0.00 0.00 71 1011.4
20260510010303 65 334 0.0 0.0 0.00 0.00 0.00 71 1011.5
20260510005759 65 334 0.0 0.0 0.00 0.00 0.00 70 1011.6
20260510005255 66 334 0.0 0.0 0.00 0.00 0.00 69 1011.6
20260510004753 66 334 0.0 0.0 0.00 0.00 0.00 68 1011.3
20260510004251 67 334 0.0 0.0 0.00 0.00 0.00 68 1011.3
20260510003748 67 334 0.0 0.0 0.00 0.00 0.00 68 1011.4
20260510003244 68 334 0.0 0.0 0.00 0.00 0.00 66 1011.3
20260510002743 68 334 0.0 0.0 0.00 0.00 0.00 66 1011.4
20260510002241 68 334 0.0 0.0 0.00 0.00 0.00 64 1011.5
20260510001737 69 334 0.0 0.0 0.00 0.00 0.00 63 1011.4
20260510001236 69 334 0.0 0.0 0.00 0.00 0.00 62 1011.2
20260510000731 69 334 0.0 0.0 0.00 0.00 0.00 61 1011.5
20260510000229 70 334 0.0 0.0 0.00 0.00 0.00 59 1011.3
20260509235725 70 334 0.0 0.0 0.00 0.00 0.00 59 1011.2
20260509235222 71 334 0.0 0.0 0.00 0.00 0.00 58 1011.3
20260509234718 71 334 0.0 0.0 0.00 0.00 0.00 55 1011.1
20260509234215 72 334 0.0 0.0 0.00 0.00 0.00 55 1011.1
20260509233714 72 334 0.0 0.0 0.00 0.00 0.00 54 1011.0
20260509233211 72 334 0.0 0.0 0.00 0.00 0.00 53 1011.1
20260509232707 72 334 0.0 0.0 0.00 0.00 0.00 53 1011.0
20260509232204 73 334 0.0 0.0 0.00 0.00 0.00 53 1011.1
20260509231700 73 334 0.0 0.0 0.00 0.00 0.00 52 1010.8
20260509231158 73 335 0.0 0.0 0.00 0.00 0.00 52 1010.9
20260509230655 73 334 0.0 0.0 0.00 0.00 0.00 52 1010.8
20260509230151 73 342 0.0 1.0 0.00 0.00 0.00 51 1010.9
20260509225647 74 27 0.0 0.0 0.00 0.00 0.00 52 1010.8
20260509225143 74 323 0.0 0.0 0.00 0.00 0.00 51 1010.7
20260509224638 74 323 0.0 0.0 0.00 0.00 0.00 52 1010.8
20260509224135 74 287 0.0 0.0 0.00 0.00 0.00 51 1010.7
20260509223632 74 111 0.0 0.0 0.00 0.00 0.00 49 1010.6
20260509223130 75 54 0.0 0.0 0.00 0.00 0.00 48 1010.7
20260509222626 75 247 0.0 1.0 0.00 0.00 0.00 49 1010.7
20260509222116 75 252 0.0 1.0 0.00 0.00 0.00 52 1010.6
20260509221612 75 271 0.0 1.0 0.00 0.00 0.00 49 1010.7
20260509221109 75 241 0.0 0.0 0.00 0.00 0.00 50 1010.6
20260509220604 75 357 0.0 0.0 0.00 0.00 0.00 49 1010.6
20260509215556 75 266 0.0 0.0 0.00 0.00 0.00 51 1010.9
20260509215054 75 70 0.0 1.0 0.00 0.00 0.00 48 1010.5
20260509214551 75 4 1.0 1.0 0.00 0.00 0.00 50 1010.5